Location: *
(13.2257°S, 48.7193°W)
Time: 12:44:18
(UTC+00:00)

Meteor 2-5 Rocket - Pass Details

Date: 13 February 2026
Orbit: 833 x 910 km, 81.2° (Epoch: 11 March)

Event Time Altitude Azimuth Distance (km) Brightness Sun altitude
Exits shadow 07:07:05 77° 107° (ESE) 889 3.8 -29.8°
Drops below altitude 10° 07:12:34 10° 171° (S) 2,490 6.5 -28.6°
Sets 07:14:59 0° 172° (S) 3,421 7.3 -28.1°
